Time,TemperatureF,DewpointF,PressureIn,WindDirection,WindDirectionDegrees,WindSpeedMPH,WindSpeedGustMPH,Humidity,HourlyPrecipIn,Conditions,Clouds,dailyrainin,SoftwareType,DateUTC
2013-05-18 11:09:00,52.1,49.0,29.96,SE,128,0.0,0.0,89,0.00,,,0.01,Wunderground v.1.15,2013-05-18 17:09:00,
2013-05-18 11:10:00,52.2,49.4,29.96,SE,128,0.0,1.0,90,0.00,,,0.01,Wunderground v.1.15,2013-05-18 17:10:00,
2013-05-18 11:15:00,52.3,48.2,29.95,East,92,0.0,1.0,86,0.00,,,0.01,Wunderground v.1.15,2013-05-18 17:15:00,
2013-05-18 11:20:00,52.7,49.2,29.95,East,94,0.0,1.0,88,0.00,,,0.01,Wunderground v.1.15,2013-05-18 17:20:00,
2013-05-18 11:25:00,53.1,48.7,29.95,East,94,0.0,1.0,85,0.00,,,0.01,Wunderground v.1.15,2013-05-18 17:25:00,
2013-05-18 11:30:00,53.4,49.3,29.95,WSW,238,0.0,1.0,86,0.00,,,0.01,Wunderground v.1.15,2013-05-18 17:30:00,
2013-05-18 11:40:00,53.7,48.3,29.95,SSW,193,1.0,1.0,82,0.00,,,0.01,Wunderground v.1.15,2013-05-18 17:40:00,
2013-05-18 11:45:00,54.2,49.8,29.95,SSW,193,1.0,1.0,85,0.00,,,0.01,Wunderground v.1.15,2013-05-18 17:45:00,
2013-05-18 11:55:00,53.5,48.8,29.95,SSW,200,2.0,4.0,84,0.00,,,0.01,Wunderground v.1.15,2013-05-18 17:55:00,
2013-05-18 12:00:00,53.1,48.7,29.95,SSW,200,2.0,2.0,85,0.00,,,0.01,Wunderground v.1.15,2013-05-18 18:00:00,
2013-05-18 12:05:00,53.0,48.3,29.95,SSW,198,1.0,2.0,84,0.00,,,0.01,Wunderground v.1.15,2013-05-18 18:05:00,
2013-05-18 12:10:00,52.4,48.6,29.95,SSW,198,0.0,1.0,87,0.00,,,0.02,Wunderground v.1.15,2013-05-18 18:10:00,
2013-05-18 12:15:00,52.0,49.2,29.95,SSW,198,0.0,1.0,90,0.14,,,0.03,Wunderground v.1.15,2013-05-18 18:15:00,
2013-05-18 12:25:00,51.8,49.5,29.95,SSW,198,0.0,1.0,92,0.06,,,0.04,Wunderground v.1.15,2013-05-18 18:25:00,
2013-05-18 12:30:00,52.1,49.8,29.95,SSW,198,0.0,1.0,92,0.06,,,0.04,Wunderground v.1.15,2013-05-18 18:30:00,
2013-05-18 12:35:00,52.3,50.3,29.95,SSW,198,0.0,1.0,93,0.04,,,0.04,Wunderground v.1.15,2013-05-18 18:35:00,
2013-05-18 12:40:00,52.1,49.8,29.95,SSW,198,0.0,1.0,92,0.00,,,0.04,Wunderground v.1.15,2013-05-18 18:40:00,
2013-05-18 12:45:00,52.1,50.1,29.95,SSW,198,0.0,1.0,93,0.00,,,0.04,Wunderground v.1.15,2013-05-18 18:45:00,
2013-05-18 12:50:00,51.9,49.9,29.94,South,179,0.0,1.0,93,0.00,,,0.04,Wunderground v.1.15,2013-05-18 18:50:00,
2013-05-18 13:00:00,51.9,49.6,29.94,South,179,0.0,1.0,92,0.00,,,0.04,Wunderground v.1.15,2013-05-18 19:00:00,
2013-05-18 13:05:00,52.1,50.1,29.94,South,179,0.0,1.0,93,0.00,,,0.04,Wunderground v.1.15,2013-05-18 19:05:00,
2013-05-18 13:10:00,52.2,49.9,29.94,South,179,0.0,1.0,92,0.00,,,0.05,Wunderground v.1.15,2013-05-18 19:10:00,
2013-05-18 13:15:00,52.1,49.8,29.94,South,179,0.0,1.0,92,0.00,,,0.05,Wunderground v.1.15,2013-05-18 19:15:00,
2013-05-18 13:20:00,52.2,49.9,29.94,South,179,0.0,1.0,92,0.00,,,0.05,Wunderground v.1.15,2013-05-18 19:20:00,
2013-05-18 13:30:00,52.7,49.8,29.94,South,179,0.0,1.0,90,0.00,,,0.05,Wunderground v.1.15,2013-05-18 19:30:00,
2013-05-18 13:35:00,52.7,49.5,29.94,South,179,0.0,1.0,89,0.00,,,0.05,Wunderground v.1.15,2013-05-18 19:35:00,
2013-05-18 13:40:00,53.1,49.0,29.93,South,179,0.0,1.0,86,0.00,,,0.05,Wunderground v.1.15,2013-05-18 19:40:00,
2013-05-18 13:45:00,54.2,50.4,29.94,SW,231,0.0,1.0,87,0.00,,,0.05,Wunderground v.1.15,2013-05-18 19:45:00,
2013-05-18 13:50:00,54.1,50.0,29.93,SW,231,0.0,2.0,86,0.00,,,0.05,Wunderground v.1.15,2013-05-18 19:50:00,
2013-05-18 14:00:00,54.3,49.9,29.93,SW,217,0.0,1.0,85,0.00,,,0.05,Wunderground v.1.15,2013-05-18 20:00:00,
2013-05-18 14:05:00,55.1,50.4,29.93,SSW,200,1.0,1.0,84,0.00,,,0.05,Wunderground v.1.15,2013-05-18 20:05:00,
2013-05-18 14:10:00,55.6,50.8,29.93,South,178,1.0,4.0,84,0.00,,,0.05,Wunderground v.1.15,2013-05-18 20:10:00,
2013-05-18 14:15:00,55.9,50.5,29.93,South,188,2.0,4.0,82,0.00,,,0.05,Wunderground v.1.15,2013-05-18 20:15:00,
2013-05-18 14:25:00,56.3,50.9,29.93,South,182,1.0,2.0,82,0.00,,,0.05,Wunderground v.1.15,2013-05-18 20:25:00,
2013-05-18 14:30:00,56.6,51.5,29.94,South,182,2.0,4.0,83,0.00,,,0.05,Wunderground v.1.15,2013-05-18 20:30:00,
2013-05-18 14:35:00,56.0,50.9,29.94,SSW,192,2.0,4.0,83,0.00,,,0.05,Wunderground v.1.15,2013-05-18 20:35:00,
2013-05-18 14:40:00,55.0,49.6,29.94,South,175,2.0,2.0,82,0.00,,,0.05,Wunderground v.1.15,2013-05-18 20:40:00,
2013-05-18 14:45:00,53.6,47.6,29.95,SE,141,2.0,2.0,80,0.00,,,0.05,Wunderground v.1.15,2013-05-18 20:45:00,
2013-05-18 14:55:00,50.8,46.8,29.95,South,189,1.0,2.0,86,1.15,,,0.14,Wunderground v.1.15,2013-05-18 20:55:00,
2013-05-18 15:00:00,49.6,46.8,29.95,SW,217,1.0,1.0,90,0.76,,,0.19,Wunderground v.1.15,2013-05-18 21:00:00,
2013-05-18 15:05:00,49.1,46.9,29.95,South,186,1.0,1.0,92,0.15,,,0.21,Wunderground v.1.15,2013-05-18 21:05:00,
2013-05-18 15:15:00,49.0,47.3,29.95,South,186,0.0,1.0,94,0.04,,,0.21,Wunderground v.1.15,2013-05-18 21:15:00,
2013-05-18 15:25:00,49.5,47.8,29.95,South,186,0.0,1.0,94,0.00,,,0.21,Wunderground v.1.15,2013-05-18 21:25:00,
2013-05-18 15:30:00,49.6,47.9,29.96,South,186,0.0,1.0,94,0.00,,,0.21,Wunderground v.1.15,2013-05-18 21:30:00,
2013-05-18 15:40:00,49.9,48.2,29.96,South,186,0.0,1.0,94,0.00,,,0.21,Wunderground v.1.15,2013-05-18 21:40:00,
2013-05-18 15:45:00,50.0,48.6,29.96,South,186,0.0,1.0,95,0.00,,,0.22,Wunderground v.1.15,2013-05-18 21:45:00,
2013-05-18 15:50:00,49.9,48.5,29.96,South,186,0.0,1.0,95,0.00,,,0.22,Wunderground v.1.15,2013-05-18 21:50:00,
2013-05-18 15:55:00,50.1,48.7,29.96,South,186,0.0,1.0,95,0.00,,,0.22,Wunderground v.1.15,2013-05-18 21:55:00,
2013-05-18 16:00:00,50.6,49.2,29.96,South,186,0.0,1.0,95,0.00,,,0.22,Wunderground v.1.15,2013-05-18 22:00:00,
2013-05-18 16:05:00,51.1,50.0,29.96,South,186,0.0,1.0,96,0.00,,,0.23,Wunderground v.1.15,2013-05-18 22:05:00,
2013-05-18 16:10:00,51.6,50.5,29.96,South,186,0.0,1.0,96,0.00,,,0.23,Wunderground v.1.15,2013-05-18 22:10:00,
2013-05-18 16:15:00,51.8,50.4,29.96,South,186,0.0,1.0,95,0.00,,,0.23,Wunderground v.1.15,2013-05-18 22:15:00,
2013-05-18 16:20:00,52.3,50.9,29.96,South,186,0.0,1.0,95,0.00,,,0.23,Wunderground v.1.15,2013-05-18 22:20:00,
2013-05-18 16:30:00,52.8,49.9,29.96,South,186,0.0,1.0,90,0.00,,,0.23,Wunderground v.1.15,2013-05-18 22:30:00,
2013-05-18 16:35:00,52.6,50.3,29.96,South,186,0.0,1.0,92,0.00,,,0.23,Wunderground v.1.15,2013-05-18 22:35:00,
2013-05-18 16:40:00,52.4,50.4,29.97,WSW,257,0.0,1.0,93,0.00,,,0.23,Wunderground v.1.15,2013-05-18 22:40:00,
2013-05-18 16:45:00,52.3,50.3,29.97,WSW,257,0.0,1.0,93,0.00,,,0.23,Wunderground v.1.15,2013-05-18 22:45:00,
2013-05-18 16:50:00,52.2,50.5,29.97,WSW,257,0.0,1.0,94,0.00,,,0.23,Wunderground v.1.15,2013-05-18 22:50:00,
2013-05-18 17:00:00,52.2,50.8,29.98,WSW,257,0.0,1.0,95,0.00,,,0.23,Wunderground v.1.15,2013-05-18 23:00:00,
2013-05-18 17:05:00,52.1,50.7,29.98,WSW,257,0.0,1.0,95,0.00,,,0.23,Wunderground v.1.15,2013-05-18 23:05:00,
2013-05-18 17:10:00,52.0,50.6,29.98,WSW,257,0.0,1.0,95,0.00,,,0.23,Wunderground v.1.15,2013-05-18 23:10:00,
2013-05-18 17:15:00,51.7,50.3,29.99,NNW,343,1.0,1.0,95,0.00,,,0.23,Wunderground v.1.15,2013-05-18 23:15:00,
2013-05-18 17:20:00,51.2,49.8,29.99,NNW,344,2.0,2.0,95,0.00,,,0.24,Wunderground v.1.15,2013-05-18 23:20:00,
2013-05-18 17:25:00,50.8,49.4,29.99,NNW,344,1.0,5.0,95,0.22,,,0.27,Wunderground v.1.15,2013-05-18 23:25:00,
2013-05-18 17:30:00,50.0,48.3,30.00,NNW,344,1.0,1.0,94,0.47,,,0.31,Wunderground v.1.15,2013-05-18 23:30:00,
2013-05-18 17:35:00,49.5,48.1,30.00,NNW,343,0.0,5.0,95,0.26,,,0.33,Wunderground v.1.15,2013-05-18 23:35:00,
2013-05-18 17:40:00,49.5,48.1,30.00,NNW,343,0.0,5.0,95,0.18,,,0.35,Wunderground v.1.15,2013-05-18 23:40:00,
2013-05-18 17:50:00,49.3,48.2,30.00,NNW,343,0.0,5.0,96,0.11,,,0.38,Wunderground v.1.15,2013-05-18 23:50:00,
2013-05-18 17:55:00,49.1,48.0,30.00,NNW,343,0.0,5.0,96,0.11,,,0.38,Wunderground v.1.15,2013-05-18 23:55:00,
2013-05-18 18:00:00,49.1,48.0,30.00,NNW,343,0.0,5.0,96,0.06,,,0.39,Wunderground v.1.15,2013-05-19 00:00:00,
2013-05-18 18:05:00,49.1,48.0,30.00,NNW,343,0.0,5.0,96,0.06,,,0.39,Wunderground v.1.15,2013-05-19 00:05:00,
2013-05-18 18:10:00,48.9,47.8,30.01,NNW,343,0.0,5.0,96,0.06,,,0.39,Wunderground v.1.15,2013-05-19 00:10:00,
2013-05-18 18:15:00,48.7,47.6,30.01,NNW,343,0.0,5.0,96,0.04,,,0.39,Wunderground v.1.15,2013-05-19 00:15:00,
2013-05-18 18:20:00,48.4,47.3,30.01,NNW,343,0.0,5.0,96,0.00,,,0.39,Wunderground v.1.15,2013-05-19 00:20:00,
2013-05-18 18:25:00,48.3,47.2,30.01,NNW,343,0.0,5.0,96,0.00,,,0.40,Wunderground v.1.15,2013-05-19 00:25:00,
2013-05-18 18:30:00,48.2,47.1,30.01,NNW,343,0.0,5.0,96,0.00,,,0.40,Wunderground v.1.15,2013-05-19 00:30:00,
2013-05-18 18:40:00,48.1,47.0,30.01,NNW,343,0.0,5.0,96,0.04,,,0.41,Wunderground v.1.15,2013-05-19 00:40:00,
2013-05-18 18:45:00,48.0,46.9,30.01,NNW,343,0.0,5.0,96,0.04,,,0.41,Wunderground v.1.15,2013-05-19 00:45:00,
2013-05-18 18:55:00,48.1,47.0,30.02,NNW,343,0.0,5.0,96,0.00,,,0.41,Wunderground v.1.15,2013-05-19 00:55:00,
2013-05-18 19:00:00,48.1,47.0,30.03,NNW,343,1.0,5.0,96,0.00,,,0.42,Wunderground v.1.15,2013-05-19 01:00:00,
2013-05-18 19:05:00,48.1,47.0,30.03,NNW,344,1.0,5.0,96,0.00,,,0.42,Wunderground v.1.15,2013-05-19 01:05:00,
2013-05-18 19:15:00,48.3,47.5,30.04,NNW,330,2.0,5.0,97,0.00,,,0.43,Wunderground v.1.15,2013-05-19 01:15:00,
2013-05-18 19:20:00,48.3,47.5,30.04,NNW,330,0.0,5.0,97,0.33,,,0.45,Wunderground v.1.15,2013-05-19 01:20:00,
2013-05-18 19:25:00,48.3,47.5,30.04,NNW,330,0.0,5.0,97,0.13,,,0.46,Wunderground v.1.15,2013-05-19 01:25:00,
2013-05-18 19:35:00,48.2,47.4,30.05,NNW,330,0.0,5.0,97,0.07,,,0.47,Wunderground v.1.15,2013-05-19 01:35:00,
2013-05-18 19:40:00,48.2,47.4,30.04,NNW,330,0.0,5.0,97,0.08,,,0.48,Wunderground v.1.15,2013-05-19 01:40:00,
2013-05-18 19:45:00,48.2,47.4,30.05,NNW,330,0.0,5.0,97,0.14,,,0.49,Wunderground v.1.15,2013-05-19 01:45:00,
2013-05-18 19:50:00,48.1,47.3,30.05,NNW,330,0.0,5.0,97,0.07,,,0.49,Wunderground v.1.15,2013-05-19 01:50:00,
2013-05-18 19:55:00,48.2,47.4,30.05,NNW,330,0.0,5.0,97,0.07,,,0.50,Wunderground v.1.15,2013-05-19 01:55:00,
2013-05-18 20:05:00,48.0,47.2,30.06,NNW,330,0.0,5.0,97,0.05,,,0.51,Wunderground v.1.15,2013-05-19 02:05:00,
2013-05-18 20:10:00,48.2,47.4,30.05,NNW,330,0.0,5.0,97,0.05,,,0.51,Wunderground v.1.15,2013-05-19 02:10:00,
2013-05-18 20:15:00,48.1,47.3,30.06,NNW,330,0.0,5.0,97,0.05,,,0.51,Wunderground v.1.15,2013-05-19 02:15:00,
2013-05-18 20:20:00,48.1,47.3,30.06,NNW,330,0.0,5.0,97,0.00,,,0.51,Wunderground v.1.15,2013-05-19 02:20:00,
2013-05-18 20:30:00,48.0,47.2,30.06,NNW,330,0.0,5.0,97,0.00,,,0.51,Wunderground v.1.15,2013-05-19 02:30:00,
2013-05-18 20:40:00,48.0,47.2,30.06,NNW,330,0.0,5.0,97,0.00,,,0.51,Wunderground v.1.15,2013-05-19 02:40:00,
2013-05-18 20:45:00,48.0,47.2,30.06,NNW,330,0.0,5.0,97,0.00,,,0.51,Wunderground v.1.15,2013-05-19 02:45:00,
2013-05-18 20:50:00,47.9,47.1,30.06,NNW,330,0.0,5.0,97,0.00,,,0.51,Wunderground v.1.15,2013-05-19 02:50:00,
2013-05-18 20:55:00,47.9,47.1,30.06,NNW,330,0.0,5.0,97,0.00,,,0.51,Wunderground v.1.15,2013-05-19 02:55:00,
2013-05-18 21:00:00,47.8,47.0,30.06,NNW,330,0.0,5.0,97,0.00,,,0.51,Wunderground v.1.15,2013-05-19 03:00:00,
2013-05-18 21:05:00,47.7,46.9,30.07,NNW,330,0.0,5.0,97,0.00,,,0.51,Wunderground v.1.15,2013-05-19 03:05:00,
2013-05-18 21:15:00,47.5,46.7,30.07,NNW,330,0.0,5.0,97,0.00,,,0.51,Wunderground v.1.15,2013-05-19 03:15:00,
2013-05-18 21:20:00,47.5,46.7,30.07,NNW,330,0.0,5.0,97,0.00,,,0.51,Wunderground v.1.15,2013-05-19 03:20:00,
2013-05-18 21:25:00,47.4,46.6,30.07,NNW,330,0.0,5.0,97,0.00,,,0.51,Wunderground v.1.15,2013-05-19 03:25:00,
2013-05-18 21:35:00,47.3,46.5,30.08,NNW,330,0.0,5.0,97,0.00,,,0.51,Wunderground v.1.15,2013-05-19 03:35:00,
2013-05-18 21:40:00,47.2,46.4,30.08,NNW,330,0.0,5.0,97,0.00,,,0.51,Wunderground v.1.15,2013-05-19 03:40:00,
2013-05-18 21:50:00,47.2,46.4,30.08,NNW,330,0.0,5.0,97,0.00,,,0.51,Wunderground v.1.15,2013-05-19 03:50:00,
2013-05-18 21:55:00,47.1,46.3,30.08,NNW,330,0.0,5.0,97,0.00,,,0.51,Wunderground v.1.15,2013-05-19 03:55:00,
2013-05-18 22:00:00,47.0,46.2,30.08,NNW,330,0.0,5.0,97,0.00,,,0.51,Wunderground v.1.15,2013-05-19 04:00:00,
2013-05-18 22:05:00,47.1,46.3,30.08,NNW,330,0.0,5.0,97,0.00,,,0.51,Wunderground v.1.15,2013-05-19 04:05:00,
2013-05-18 22:10:00,47.1,46.3,30.08,NNW,330,0.0,5.0,97,0.00,,,0.51,Wunderground v.1.15,2013-05-19 04:10:00,
2013-05-18 22:15:00,46.9,46.1,30.08,NNW,330,0.0,5.0,97,0.00,,,0.51,Wunderground v.1.15,2013-05-19 04:15:00,
2013-05-18 22:20:00,47.0,46.2,30.08,NNW,330,0.0,5.0,97,0.00,,,0.51,Wunderground v.1.15,2013-05-19 04:20:00,
2013-05-18 22:25:00,47.0,46.2,30.08,NNW,330,0.0,5.0,97,0.00,,,0.51,Wunderground v.1.15,2013-05-19 04:25:00,
2013-05-18 22:30:00,47.0,46.2,30.08,NNW,330,0.0,5.0,97,0.00,,,0.51,Wunderground v.1.15,2013-05-19 04:30:00,
2013-05-18 22:35:00,47.0,46.2,30.09,NNW,330,0.0,5.0,97,0.00,,,0.51,Wunderground v.1.15,2013-05-19 04:35:00,
2013-05-18 22:40:00,46.8,46.0,30.08,NNW,330,0.0,5.0,97,0.00,,,0.51,Wunderground v.1.15,2013-05-19 04:40:00,
2013-05-18 22:45:00,46.8,46.0,30.09,NNW,330,0.0,5.0,97,0.00,,,0.52,Wunderground v.1.15,2013-05-19 04:45:00,
2013-05-18 22:50:00,46.7,45.9,30.09,NNW,330,0.0,5.0,97,0.00,,,0.52,Wunderground v.1.15,2013-05-19 04:50:00,
2013-05-18 23:00:00,46.3,45.5,30.08,NNW,330,0.0,5.0,97,0.00,,,0.52,Wunderground v.1.15,2013-05-19 05:00:00,
2013-05-18 23:05:00,46.0,45.2,30.08,NNW,330,0.0,5.0,97,0.00,,,0.52,Wunderground v.1.15,2013-05-19 05:05:00,
2013-05-18 23:10:00,45.7,44.9,30.09,NNW,330,0.0,5.0,97,0.00,,,0.52,Wunderground v.1.15,2013-05-19 05:10:00,
2013-05-18 23:15:00,45.5,44.7,30.08,NNW,330,0.0,5.0,97,0.00,,,0.52,Wunderground v.1.15,2013-05-19 05:15:00,
2013-05-18 23:20:00,45.4,44.6,30.08,NNW,330,0.0,5.0,97,0.00,,,0.52,Wunderground v.1.15,2013-05-19 05:20:00,
2013-05-18 23:30:00,45.7,44.9,30.08,NNW,330,0.0,5.0,97,0.00,,,0.52,Wunderground v.1.15,2013-05-19 05:30:00,
2013-05-18 23:35:00,45.8,45.0,30.08,NNW,330,0.0,5.0,97,0.00,,,0.52,Wunderground v.1.15,2013-05-19 05:35:00,
2013-05-18 23:40:00,45.8,45.0,30.08,NNW,330,0.0,5.0,97,0.00,,,0.52,Wunderground v.1.15,2013-05-19 05:40:00,
2013-05-18 23:45:00,45.7,44.9,30.08,NNW,330,0.0,5.0,97,0.00,,,0.52,Wunderground v.1.15,2013-05-19 05:45:00,
2013-05-18 23:50:00,45.8,45.0,30.08,NNW,330,0.0,5.0,97,0.00,,,0.52,Wunderground v.1.15,2013-05-19 05:50:00,
2013-05-18 23:55:00,45.8,45.3,30.08,NNW,330,0.0,5.0,98,0.00,,,0.52,Wunderground v.1.15,2013-05-19 05:55:00,